Location: Albany
(35.0170°S, 117.8920°E)
Time: 20:50:16
(UTC+08:00)

A-11 Canister half - Pass Details

Date: 30 January 2021
Orbit: 1525 x 1684 km, 47.3° (Epoch: 03 March)

Event Time Altitude Azimuth Distance (km) Brightness Sun altitude
Rises 03:38:32 0° 261° (W) 4,945 - -19.6°
Exits shadow 03:39:46 - 259° (WSW) 4,592 11.1 -19.4°
Reaches altitude 10° 03:42:03 10° 253° (WSW) 3,950 10.8 -19.0°
Maximum altitude 03:51:29 41° 185° (S) 2,256 10.1 -17.5°
Drops below altitude 10° 04:00:42 10° 117° (ESE) 3,854 12.4 -16.0°
Sets 04:04:05 0° 109° (ESE) 4,816 13.1 -15.4°
